Wind_Speed
23 24 28 30 34 36 33 35 38 36 36 34 32 27 26 24 22 22 22 21 21 20 18 18 20 23 25 22 21 20 20 18 14 14 13 13 14 14
22 25 28 29 27 28 28 27 29 29 28 28 28 26 26 24 20 22 23 20 19 19 18 20 21 22 23 22 22 21 19 19 15 13 11 11 13 16
21 26 28 28 25 24 22 23 24 24 27 26 25 25 24 26 22 23 22 20 19 19 19 21 22 22 23 23 22 20 18 16 16 14 12 12 15 15
21 21 22 20 22 21 22 26 23 19 24 25 22 21 21 23 22 22 18 20 20 21 21 20 21 22 23 20 20 18 18 17 16 16 17 15 16 17
20 22 19 17 16 20 20 23 24 20 21 23 23 21 22 22 20 17 19 21 20 22 23 21 22 23 22 20 19 16 16 18 17 18 20 19 20 20
21 21 20 18 18 18 18 17 19 21 22 23 25 24 22 23 20 20 21 20 19 21 24 22 19 20 20 19 17 15 15 20 21 21 21 20 22 22
27 28 26 24 23 23 22 23 24 25 25 25 27 26 24 23 21 21 21 20 19 22 23 23 20 21 20 16 18 18 19 22 26 24 21 20 21 22
27 27 29 29 29 30 29 28 27 26 27 27 28 28 28 26 25 24 23 23 23 26 25 22 23 22 23 22 21 23 23 25 28 28 25 23 23 24
26 27 27 28 29 31 32 32 32 31 30 30 30 29 31 30 28 29 28 26 25 26 27 27 25 25 24 23 26 27 28 30 32 32 31 30 29 28
25 26 27 28 29 30 30 31 31 32 33 34 34 33 34 34 33 32 34 34 31 30 30 28 29 26 27 25 25 28 31 30 35 35 35 36 35 33
28 27 25 25 26 28 31 34 36 37 38 38 40 40 39 38 38 37 38 38 35 35 36 35 34 33 33 30 28 29 29 26 28 33 36 39 38 37
31 30 28 25 23 23 26 31 36 39 41 42 43 43 43 42 42 43 43 43 42 42 43 44 43 40 37 36 34 34 31 28 28 29 32 36 38 39
26 26 24 24 24 24 24 25 27 30 35 40 43 43 44 44 45 45 45 45 45 45 46 46 45 44 42 40 37 36 36 35 32 29 29 34 37 39
24 25 26 26 26 26 26 27 27 28 29 32 37 41 44 46 44 42 41 42 45 46 46 47 47 47 45 44 42 39 39 39 38 34 33 32 35 40
27 26 28 30 28 27 26 27 29 29 29 28 29 32 37 40 44 46 46 43 43 44 43 42 43 45 45 43 42 39 36 35 34 34 34 33 34 41
31 32 33 33 31 30 30 30 30 31 31 28 25 24 28 32 35 40 43 45 41 40 41 41 41 42 42 42 41 38 35 33 32 33 32 30 31 37
30 31 30 29 29 30 31 31 30 32 34 33 31 29 27 26 26 28 32 33 34 39 40 37 37 38 40 41 40 41 42 38 35 37 34 32 31 33
30 29 27 28 27 26 26 28 27 27 29 33 34 33 33 32 31 28 26 28 27 28 30 33 34 35 36 36 37 39 41 39 37 38 40 36 30 33
27 27 27 29 30 30 31 32 32 33 33 34 35 36 37 38 37 36 35 33 34 33 31 30 31 33 35 38 38 37 37 37 37 41 47 47 40 35
25 29 32 34 35 35 35 35 37 39 40 41 42 42 42 42 43 43 43 42 40 37 36 34 32 32 32 32 34 33 35 37 38 39 40 41 37 34
27 30 31 33 33 34 35 36 37 39 40 41 43 44 44 44 45 46 46 45 42 40 37 34 32 30 29 28 26 25 25 31 37 39 40 40 39 36
24 25 26 25 25 27 28 29 31 33 35 36 38 41 43 43 42 43 44 44 44 44 42 39 37 36 34 35 30 28 28 29 31 36 40 41 39 36
25 23 22 24 25 27 27 27 29 31 32 32 32 32 34 37 38 39 40 42 43 46 48 48 48 46 42 40 36 30 28 29 29 31 34 37 38 38
Wind_Direction
263 256 258 262 268 265 263 263 253 252 253 248 241 245 251 257 260 267 265 264 266 265 261 260 261 260 264 260 253 261 266 263 266 266 276 287 280 259
256 258 257 258 264 256 251 253 250 243 244 244 242 240 248 258 254 256 259 261 267 269 264 260 258 257 263 260 259 265 264 261 266 271 284 283 264 239
270 255 251 250 245 252 246 248 240 239 240 243 246 245 254 261 256 253 256 262 262 264 264 261 259 257 260 266 261 263 264 270 275 275 266 256 243 228
305 283 260 256 245 240 238 242 247 247 249 252 256 257 258 265 261 252 254 265 264 263 262 255 254 259 264 263 261 262 257 254 260 260 252 243 234 223
297 303 297 283 281 267 260 252 249 250 255 254 253 252 251 257 262 262 267 270 272 268 264 260 252 257 261 262 261 260 256 255 252 247 244 240 231 221
280 280 283 283 282 276 271 264 261 259 257 256 255 253 250 249 249 256 263 265 266 267 266 265 264 259 252 253 251 247 251 256 254 243 239 237 235 228
272 272 272 272 275 272 267 259 255 254 254 253 253 253 252 250 250 254 259 260 261 261 261 264 264 256 251 245 245 239 238 243 247 247 242 239 237 231
270 271 271 272 271 270 268 265 261 257 255 255 255 257 257 253 254 254 254 256 257 256 254 254 259 258 258 258 246 244 241 241 239 241 243 242 241 238
276 275 274 275 274 271 269 266 263 262 259 258 256 254 255 254 253 255 257 258 254 252 260 261 253 254 256 256 249 251 254 258 249 237 239 244 245 244
282 279 274 269 269 267 265 265 263 262 261 260 256 254 253 251 251 253 256 257 254 250 253 249 250 255 260 258 261 261 253 263 262 244 239 244 249 249
292 290 285 278 272 263 259 256 253 250 247 247 247 248 247 247 248 250 250 250 248 248 244 246 255 258 258 254 252 252 250 250 252 253 247 241 244 246
297 299 300 296 288 276 265 258 252 248 245 244 245 247 248 247 247 248 247 246 246 244 244 248 254 255 254 254 253 250 251 255 255 250 251 247 245 240
297 297 296 296 298 296 290 282 274 264 255 251 248 248 249 249 250 249 250 249 249 249 248 249 250 250 251 253 252 251 251 251 249 250 253 251 249 240
291 291 291 290 291 290 288 287 287 284 275 264 255 249 248 247 250 256 256 253 252 251 248 248 249 250 249 252 253 252 251 250 249 249 247 252 254 238
291 288 287 285 282 279 279 280 282 283 284 279 269 259 255 252 250 250 254 254 249 251 251 251 252 253 252 251 252 251 250 245 241 243 248 253 253 241
291 289 288 285 282 279 277 276 277 275 272 271 269 264 260 257 253 250 252 255 254 249 251 253 255 255 252 250 248 244 238 234 233 234 243 255 256 245
294 293 294 292 287 280 276 274 274 270 265 260 262 264 261 260 258 254 251 248 244 242 241 245 246 248 247 244 242 237 229 232 244 245 249 252 244 237
299 298 293 289 286 284 282 282 282 278 272 267 263 261 261 261 263 260 253 246 249 252 248 245 246 247 244 239 239 237 236 240 243 241 237 234 232 219
298 296 294 292 290 289 288 288 287 285 283 279 275 270 264 261 261 263 263 262 262 262 259 250 244 246 250 250 248 243 241 240 239 240 244 245 245 239
304 299 296 295 294 293 290 288 286 284 282 281 279 274 268 264 261 259 258 258 257 256 256 254 250 246 243 246 250 248 246 246 243 242 244 249 253 247
295 292 292 292 292 291 290 290 289 286 281 277 273 272 270 266 263 258 255 253 250 248 245 244 245 244 240 231 237 237 236 244 247 242 242 247 250 247
309 308 304 300 297 297 300 302 301 294 287 282 277 272 270 269 267 263 258 253 247 243 237 231 231 235 234 234 240 242 239 238 245 248 243 244 244 244
320 317 314 312 311 311 310 309 306 308 305 295 287 281 275 271 268 266 260 255 249 245 239 233 230 233 233 234 236 235 237 237 239 246 250 248 244 240
Height
5775 5776 5776 5777 5778 5779 5778 5779 5781 5782 5784 5785 5787 5789 5790 5790 5790 5791 5792 5791 5791 5790 5789 5792 5793 5793 5792 5791 5791 5791 5791 5793 5791 5792 5790 5789 5792 5792
5767 5768 5768 5769 5769 5768 5770 5770 5771 5773 5774 5776 5779 5781 5782 5782 5781 5782 5784 5784 5783 5783 5784 5785 5787 5786 5785 5785 5786 5786 5786 5786 5785 5785 5785 5786 5789 5791
5763 5761 5761 5761 5762 5762 5763 5765 5766 5765 5767 5769 5770 5772 5774 5774 5775 5775 5776 5776 5776 5777 5778 5779 5780 5779 5779 5780 5780 5781 5780 5780 5781 5781 5782 5784 5787 5788
5760 5757 5755 5755 5756 5757 5757 5758 5760 5759 5761 5762 5763 5765 5767 5768 5769 5769 5769 5770 5771 5772 5772 5772 5773 5773 5773 5774 5774 5773 5775 5775 5776 5778 5778 5779 5781 5783
5755 5754 5751 5751 5752 5753 5752 5751 5754 5755 5757 5758 5758 5759 5761 5763 5763 5762 5764 5765 5765 5765 5765 5765 5765 5767 5767 5768 5769 5769 5770 5772 5772 5773 5774 5776 5777 5778
5748 5748 5747 5747 5748 5748 5748 5748 5749 5750 5749 5751 5752 5753 5755 5757 5757 5756 5758 5759 5759 5758 5758 5760 5760 5761 5761 5762 5762 5762 5764 5768 5770 5769 5770 5772 5774 5775
5742 5742 5742 5741 5741 5742 5742 5742 5742 5744 5744 5744 5746 5747 5748 5749 5750 5750 5751 5752 5753 5752 5752 5754 5754 5756 5757 5756 5757 5757 5758 5762 5766 5766 5766 5767 5770 5772
5735 5735 5734 5732 5733 5735 5735 5736 5735 5736 5737 5737 5738 5739 5741 5741 5742 5743 5744 5745 5745 5745 5747 5747 5750 5750 5751 5752 5752 5752 5753 5755 5757 5759 5761 5763 5766 5768
5725 5725 5725 5724 5725 5726 5727 5728 5728 5728 5729 5729 5729 5729 5732 5733 5734 5736 5737 5737 5739 5739 5740 5741 5742 5743 5744 5745 5745 5746 5747 5748 5749 5751 5754 5757 5760 5762
5714 5713 5714 5714 5714 5714 5715 5715 5715 5716 5717 5719 5720 5720 5721 5722 5724 5726 5727 5729 5731 5732 5733 5734 5735 5735 5735 5736 5737 5737 5738 5739 5740 5741 5744 5748 5752 5755
5703 5702 5702 5703 5703 5702 5702 5703 5703 5704 5705 5706 5707 5707 5708 5710 5712 5715 5717 5719 5720 5722 5724 5725 5726 5727 5728 5728 5729 5730 5730 5730 5730 5732 5734 5738 5742 5746
5695 5693 5691 5690 5690 5690 5691 5691 5692 5692 5692 5693 5694 5695 5696 5698 5700 5703 5706 5707 5709 5711 5713 5715 5716 5718 5719 5719 5720 5721 5722 5722 5722 5722 5726 5729 5732 5735
5688 5686 5685 5683 5681 5680 5679 5679 5679 5679 5679 5681 5682 5684 5685 5687 5689 5691 5693 5695 5697 5699 5702 5704 5706 5708 5709 5710 5711 5712 5713 5714 5714 5715 5718 5721 5723 5727
5683 5680 5678 5677 5676 5674 5672 5671 5670 5669 5668 5668 5670 5672 5673 5675 5678 5679 5680 5682 5684 5686 5688 5691 5693 5695 5698 5699 5701 5702 5703 5704 5706 5706 5708 5711 5713 5717
5673 5672 5671 5668 5667 5667 5664 5663 5661 5660 5659 5658 5658 5659 5659 5662 5665 5666 5669 5670 5672 5674 5675 5678 5681 5682 5685 5687 5689 5691 5693 5694 5696 5697 5699 5702 5704 5706
5664 5662 5660 5659 5657 5656 5655 5654 5654 5654 5653 5651 5650 5650 5650 5650 5651 5654 5656 5657 5659 5661 5662 5665 5668 5671 5673 5674 5677 5680 5683 5685 5684 5687 5689 5692 5694 5695
5655 5653 5651 5649 5647 5646 5644 5643 5644 5644 5643 5643 5643 5642 5642 5642 5642 5644 5644 5644 5645 5648 5650 5653 5656 5658 5660 5663 5665 5667 5671 5673 5674 5677 5680 5682 5684 5685
5646 5644 5642 5639 5638 5637 5635 5634 5634 5632 5631 5630 5630 5631 5632 5632 5633 5635 5636 5637 5637 5638 5640 5643 5645 5647 5650 5652 5654 5655 5657 5660 5663 5667 5670 5674 5676 5676
5637 5635 5633 5630 5628 5627 5626 5625 5623 5621 5619 5618 5617 5618 5619 5620 5621 5623 5625 5626 5627 5628 5631 5633 5634 5637 5640 5642 5643 5645 5647 5649 5651 5655 5657 5659 5663 5669
5630 5628 5625 5622 5619 5617 5615 5614 5612 5610 5608 5605 5603 5602 5603 5604 5606 5609 5611 5613 5615 5617 5620 5622 5624 5626 5628 5630 5632 5635 5636 5639 5642 5644 5646 5647 5650 5654
5625 5621 5617 5614 5610 5608 5605 5603 5600 5596 5593 5590 5588 5586 5586 5587 5589 5591 5594 5597 5599 5601 5605 5609 5611 5614 5617 5619 5622 5623 5626 5627 5629 5633 5636 5638 5640 5643
5616 5613 5609 5605 5602 5599 5595 5591 5587 5583 5579 5576 5573 5571 5570 5571 5572 5574 5577 5580 5583 5585 5589 5595 5598 5601 5605 5608 5611 5614 5616 5618 5619 5619 5624 5628 5630 5633
5611 5607 5603 5598 5594 5590 5587 5583 5579 5574 5569 5564 5561 5558 5556 5556 5557 5559 5560 5564 5567 5570 5574 5577 5583 5587 5592 5595 5599 5603 5606 5609 5610 5610 5612 5615 5619 5623